Location: Newark
(7.0858°N, 171.3717°E)
Time: 08:46:06
(UTC+00:00)

S-56A Canister/Altair - Pass Details

Date: 26 November 2020
Orbit: 633 x 2499 km, 38.9° (Epoch: 27 January)

Event Time Altitude Azimuth Distance (km) Brightness Sun altitude
Rises 02:40:28 0° 197° (SSW) 5,994 12.6 45.9°
Reaches altitude 10° 02:46:39 10° 179° (S) 5,128 12.3 44.7°
Maximum altitude 02:55:17 17° 143° (SE) 4,534 11.6 43.0°
Drops below altitude 10° 03:03:34 10° 108° (ESE) 4,937 11.5 41.4°
Sets 03:09:09 0° 90° (E) 5,694 11.6 40.2°
